Time,TemperatureF,DewpointF,PressureIn,WindDirection,WindDirectionDegrees,WindSpeedMPH,WindSpeedGustMPH,Humidity,HourlyPrecipIn,Conditions,Clouds,dailyrainin,SoftwareType,DateUTC
2013-05-09 00:03:00,58.0,54.0,-100.00,North,0,1.0,3.0,84,0.00,,,-99.99,,2013-05-09 04:03:00,
2013-05-09 00:12:00,58.0,54.0,-100.00,North,350,1.0,2.0,84,0.00,,,-99.99,,2013-05-09 04:12:00,
2013-05-09 00:23:00,58.0,54.0,-100.00,NW,310,1.0,2.0,88,0.00,,,-99.99,,2013-05-09 04:23:00,
2013-05-09 00:33:00,57.0,54.0,-100.00,WNW,290,1.0,2.0,88,0.00,,,-99.99,,2013-05-09 04:33:00,
2013-05-09 00:43:00,57.0,54.0,-100.00,NW,325,2.0,3.0,89,0.55,,,-99.99,,2013-05-09 04:43:00,
2013-05-09 00:52:00,57.0,54.0,-100.00,NNW,335,2.0,4.0,89,0.00,,,-99.99,,2013-05-09 04:52:00,
2013-05-09 01:02:00,57.0,54.0,-100.00,North,355,1.0,3.0,89,0.00,,,-99.99,,2013-05-09 05:02:00,
2013-05-09 01:12:00,57.0,54.0,-100.00,NNW,335,2.0,2.0,89,0.00,,,-99.99,,2013-05-09 05:12:00,
2013-05-09 01:22:00,57.0,54.0,-100.00,NNW,335,1.0,2.0,89,0.00,,,-99.99,,2013-05-09 05:22:00,
2013-05-09 01:32:00,57.0,54.0,-100.00,North,0,1.0,3.0,89,0.00,,,-99.99,,2013-05-09 05:32:00,
2013-05-09 01:42:00,57.0,54.0,-100.00,North,0,1.0,2.0,89,0.00,,,-99.99,,2013-05-09 05:42:00,
2013-05-09 01:51:00,57.0,54.0,-100.00,ENE,70,0.0,1.0,89,0.00,,,-99.99,,2013-05-09 05:51:00,
2013-05-09 02:02:00,57.0,54.0,-100.00,WNW,300,1.0,2.0,89,0.00,,,-99.99,,2013-05-09 06:02:00,
2013-05-09 02:12:00,56.0,54.0,-100.00,West,265,1.0,2.0,90,0.00,,,-99.99,,2013-05-09 06:12:00,
2013-05-09 02:21:00,56.0,54.0,-100.00,West,275,1.0,2.0,90,0.00,,,-99.99,,2013-05-09 06:21:00,
2013-05-09 02:32:00,56.0,54.0,-100.00,SSE,150,0.0,2.0,91,0.00,,,-99.99,,2013-05-09 06:32:00,
2013-05-09 02:42:00,56.0,54.0,-100.00,West,275,2.0,4.0,91,0.00,,,-99.99,,2013-05-09 06:42:00,
2013-05-09 02:52:00,56.0,54.0,-100.00,West,270,2.0,5.0,91,0.00,,,-99.99,,2013-05-09 06:52:00,
2013-05-09 03:01:00,56.0,54.0,-100.00,West,270,2.0,4.0,91,0.00,,,-99.99,,2013-05-09 07:01:00,
2013-05-09 03:12:00,56.0,54.0,-100.00,West,280,1.0,3.0,91,0.00,,,-99.99,,2013-05-09 07:12:00,
2013-05-09 03:21:00,56.0,54.0,-100.00,WNW,290,2.0,3.0,91,0.00,,,-99.99,,2013-05-09 07:21:00,
2013-05-09 03:32:00,56.0,54.0,-100.00,WNW,295,2.0,3.0,92,0.00,,,-99.99,,2013-05-09 07:32:00,
2013-05-09 03:42:00,56.0,54.0,-100.00,West,275,2.0,4.0,92,0.00,,,-99.99,,2013-05-09 07:42:00,
2013-05-09 03:52:00,56.0,54.0,-100.00,West,270,2.0,3.0,92,0.00,,,-99.99,,2013-05-09 07:52:00,
2013-05-09 04:02:00,56.0,54.0,-100.00,West,270,1.0,3.0,92,0.00,,,-99.99,,2013-05-09 08:02:00,
2013-05-09 04:11:00,56.0,54.0,-100.00,West,265,2.0,3.0,92,0.00,,,-99.99,,2013-05-09 08:11:00,
2013-05-09 04:21:00,56.0,54.0,-100.00,WNW,285,2.0,3.0,92,0.00,,,-99.99,,2013-05-09 08:21:00,
2013-05-09 04:32:00,56.0,54.0,-100.00,WNW,285,2.0,4.0,92,0.00,,,-99.99,,2013-05-09 08:32:00,
2013-05-09 04:42:00,56.0,54.0,-100.00,WNW,285,4.0,6.0,92,0.00,,,-99.99,,2013-05-09 08:42:00,
2013-05-09 04:51:00,56.0,54.0,-100.00,WNW,290,1.0,6.0,92,0.00,,,-99.99,,2013-05-09 08:51:00,
2013-05-09 05:02:00,56.0,54.0,-100.00,West,280,2.0,4.0,92,0.00,,,-99.99,,2013-05-09 09:02:00,
2013-05-09 05:11:00,56.0,54.0,-100.00,WNW,295,1.0,3.0,92,0.00,,,-99.99,,2013-05-09 09:11:00,
2013-05-09 05:21:00,55.0,53.0,-100.00,NNW,330,1.0,2.0,92,0.00,,,-99.99,,2013-05-09 09:21:00,
2013-05-09 05:32:00,55.0,53.0,-100.00,West,275,2.0,3.0,92,0.00,,,-99.99,,2013-05-09 09:32:00,
2013-05-09 05:43:00,55.0,53.0,-100.00,West,280,2.0,2.0,92,0.00,,,-99.99,,2013-05-09 09:43:00,
2013-05-09 05:52:00,55.0,53.0,-100.00,WNW,285,2.0,3.0,92,0.00,,,-99.99,,2013-05-09 09:52:00,
2013-05-09 06:02:00,55.0,53.0,-100.00,West,265,1.0,2.0,93,0.00,,,-99.99,,2013-05-09 10:02:00,
2013-05-09 06:12:00,55.0,53.0,-100.00,West,260,2.0,3.0,93,0.00,,,-99.99,,2013-05-09 10:12:00,
2013-05-09 06:22:00,55.0,53.0,-100.00,West,270,2.0,4.0,93,0.00,,,-99.99,,2013-05-09 10:22:00,
2013-05-09 06:33:00,55.0,53.0,-100.00,West,270,3.0,5.0,93,0.00,,,-99.99,,2013-05-09 10:33:00,
2013-05-09 06:42:00,55.0,53.0,-100.00,West,280,3.0,6.0,93,0.00,,,-99.99,,2013-05-09 10:42:00,
2013-05-09 06:52:00,55.0,53.0,-100.00,West,270,2.0,5.0,93,0.00,,,-99.99,,2013-05-09 10:52:00,
2013-05-09 07:02:00,55.0,53.0,-100.00,West,265,3.0,6.0,93,0.00,,,-99.99,,2013-05-09 11:02:00,
2013-05-09 07:12:00,55.0,53.0,-100.00,West,280,3.0,6.0,93,0.00,,,-99.99,,2013-05-09 11:12:00,
2013-05-09 07:22:00,55.0,53.0,-100.00,West,280,3.0,6.0,93,0.00,,,-99.99,,2013-05-09 11:22:00,
2013-05-09 07:32:00,55.0,53.0,-100.00,West,275,2.0,6.0,92,0.00,,,-99.99,,2013-05-09 11:32:00,
2013-05-09 07:41:00,56.0,53.0,-100.00,West,280,3.0,4.0,92,0.00,,,-99.99,,2013-05-09 11:41:00,
2013-05-09 07:51:00,56.0,53.0,-100.00,West,280,4.0,4.0,92,0.00,,,-99.99,,2013-05-09 11:51:00,
2013-05-09 08:01:00,56.0,54.0,-100.00,West,270,2.0,4.0,92,0.00,,,-99.99,,2013-05-09 12:01:00,
2013-05-09 08:11:00,56.0,54.0,-100.00,West,265,3.0,4.0,92,0.00,,,-99.99,,2013-05-09 12:11:00,
2013-05-09 08:22:00,56.0,54.0,-100.00,West,260,3.0,4.0,92,0.00,,,-99.99,,2013-05-09 12:22:00,
2013-05-09 08:32:00,56.0,54.0,-100.00,NW,320,1.0,4.0,92,0.00,,,-99.99,,2013-05-09 12:32:00,
2013-05-09 08:42:00,56.0,54.0,-100.00,WNW,285,1.0,4.0,91,0.00,,,-99.99,,2013-05-09 12:42:00,
2013-05-09 08:52:00,57.0,54.0,-100.00,West,270,1.0,3.0,90,0.00,,,-99.99,,2013-05-09 12:52:00,
2013-05-09 09:01:00,57.0,54.0,-100.00,WSW,255,1.0,2.0,90,0.00,,,-99.99,,2013-05-09 13:01:00,
2013-05-09 09:12:00,58.0,54.0,-100.00,WSW,250,2.0,4.0,88,0.00,,,-99.99,,2013-05-09 13:12:00,
2013-05-09 09:22:00,58.0,54.0,-100.00,West,265,3.0,4.0,86,0.00,,,-99.99,,2013-05-09 13:22:00,
2013-05-09 09:32:00,59.0,55.0,-100.00,West,275,2.0,5.0,85,0.00,,,-99.99,,2013-05-09 13:32:00,
2013-05-09 09:42:00,59.0,55.0,-100.00,West,275,3.0,5.0,84,0.00,,,-99.99,,2013-05-09 13:42:00,
2013-05-09 09:52:00,61.0,55.0,-100.00,West,260,4.0,6.0,79,0.00,,,-99.99,,2013-05-09 13:52:00,
2013-05-09 10:02:00,62.0,54.0,-100.00,West,265,4.0,6.0,74,0.00,,,-99.99,,2013-05-09 14:02:00,
2013-05-09 10:11:00,64.0,55.0,-100.00,WNW,295,1.0,6.0,72,0.00,,,-99.99,,2013-05-09 14:11:00,
2013-05-09 10:22:00,65.0,54.0,-100.00,NW,305,1.0,4.0,67,0.00,,,-99.99,,2013-05-09 14:22:00,
2013-05-09 10:32:00,67.0,53.0,-100.00,WSW,245,4.0,6.0,61,0.00,,,-99.99,,2013-05-09 14:32:00,
2013-05-09 10:42:00,66.0,53.0,-100.00,NW,305,4.0,7.0,63,0.00,,,-99.99,,2013-05-09 14:42:00,
2013-05-09 10:52:00,67.0,53.0,-100.00,West,270,1.0,7.0,59,0.00,,,-99.99,,2013-05-09 14:52:00,
2013-05-09 11:01:00,67.0,51.0,-100.00,NW,315,4.0,9.0,55,0.00,,,-99.99,,2013-05-09 15:01:00,
2013-05-09 11:11:00,67.0,52.0,-100.00,NW,305,6.0,9.0,57,0.00,,,-99.99,,2013-05-09 15:11:00,
2013-05-09 11:22:00,67.0,51.0,-100.00,NW,305,7.0,10.0,54,0.00,,,-99.99,,2013-05-09 15:22:00,
2013-05-09 11:33:00,67.0,50.0,-100.00,West,280,4.0,9.0,54,0.00,,,-99.99,,2013-05-09 15:33:00,
2013-05-09 11:43:00,67.0,49.0,-100.00,WNW,290,4.0,12.0,52,0.00,,,-99.99,,2013-05-09 15:43:00,
2013-05-09 11:53:00,69.0,49.0,-100.00,NW,310,8.0,12.0,48,0.00,,,-99.99,,2013-05-09 15:53:00,
2013-05-09 12:03:00,69.0,51.0,-100.00,WNW,290,6.0,11.0,52,0.00,,,-99.99,,2013-05-09 16:03:00,
2013-05-09 12:12:00,69.0,50.0,-100.00,WNW,290,4.0,9.0,49,0.00,,,-99.99,,2013-05-09 16:12:00,
2013-05-09 12:23:00,70.0,50.0,-100.00,NNW,340,4.0,9.0,48,0.00,,,-99.99,,2013-05-09 16:23:00,
2013-05-09 12:33:00,71.0,49.0,-100.00,WNW,295,9.0,12.0,45,0.00,,,-99.99,,2013-05-09 16:33:00,
2013-05-09 12:42:00,71.0,49.0,-100.00,West,275,7.0,15.0,45,0.00,,,-99.99,,2013-05-09 16:42:00,
2013-05-09 12:52:00,71.0,48.0,-100.00,NW,315,6.0,13.0,42,0.00,,,-99.99,,2013-05-09 16:52:00,
2013-05-09 13:02:00,73.0,45.0,-100.00,WNW,300,9.0,14.0,37,0.00,,,-99.99,,2013-05-09 17:02:00,
2013-05-09 13:12:00,73.0,46.0,-100.00,NW,320,9.0,16.0,38,0.00,,,-99.99,,2013-05-09 17:12:00,
2013-05-09 13:21:00,74.0,47.0,-100.00,WNW,285,7.0,14.0,39,0.00,,,-99.99,,2013-05-09 17:21:00,
2013-05-09 13:32:00,74.0,48.0,-100.00,NW,305,9.0,13.0,40,0.00,,,-99.99,,2013-05-09 17:32:00,
2013-05-09 13:42:00,73.0,45.0,-100.00,West,280,11.0,14.0,36,0.00,,,-99.99,,2013-05-09 17:42:00,
2013-05-09 13:55:00,74.0,44.0,-100.00,NW,325,10.0,19.0,34,0.00,,,-99.99,,2013-05-09 17:55:00,
2013-05-09 14:01:00,74.0,44.0,-100.00,NW,320,7.0,21.0,34,0.00,,,-99.99,,2013-05-09 18:01:00,
2013-05-09 14:12:00,74.0,44.0,-100.00,WNW,300,8.0,14.0,33,0.00,,,-99.99,,2013-05-09 18:12:00,
2013-05-09 14:21:00,75.0,43.0,-100.00,West,275,6.0,11.0,31,0.00,,,-99.99,,2013-05-09 18:21:00,
2013-05-09 14:32:00,76.0,44.0,-100.00,NW,310,7.0,15.0,32,0.00,,,-99.99,,2013-05-09 18:32:00,
2013-05-09 14:42:00,76.0,43.0,-100.00,NW,320,7.0,14.0,30,0.00,,,-99.99,,2013-05-09 18:42:00,
2013-05-09 14:52:00,76.0,41.0,-100.00,NNW,335,8.0,14.0,28,0.00,,,-99.99,,2013-05-09 18:52:00,
2013-05-09 15:01:00,76.0,42.0,-100.00,NW,325,10.0,16.0,29,0.00,,,-99.99,,2013-05-09 19:01:00,
2013-05-09 15:12:00,77.0,41.0,-100.00,NNW,335,9.0,16.0,28,0.00,,,-99.99,,2013-05-09 19:12:00,
2013-05-09 15:21:00,76.0,39.0,-100.00,NNW,330,9.0,17.0,25,0.00,,,-99.99,,2013-05-09 19:21:00,
2013-05-09 15:32:00,78.0,41.0,-100.00,NW,305,4.0,13.0,26,0.00,,,-99.99,,2013-05-09 19:32:00,
2013-05-09 15:41:00,78.0,42.0,-100.00,NW,305,7.0,16.0,27,0.00,,,-99.99,,2013-05-09 19:41:00,
2013-05-09 15:52:00,76.0,40.0,-100.00,NW,325,9.0,17.0,26,0.00,,,-99.99,,2013-05-09 19:52:00,
2013-05-09 16:01:00,77.0,39.0,-100.00,NW,320,11.0,18.0,25,0.00,,,-99.99,,2013-05-09 20:01:00,
2013-05-09 16:11:00,76.0,42.0,-100.00,NNW,330,11.0,16.0,28,0.00,,,-99.99,,2013-05-09 20:11:00,
2013-05-09 16:22:00,77.0,41.0,-100.00,NNW,335,7.0,13.0,27,0.00,,,-99.99,,2013-05-09 20:22:00,
2013-05-09 16:32:00,78.0,43.0,-100.00,West,280,7.0,14.0,29,0.00,,,-99.99,,2013-05-09 20:32:00,
2013-05-09 16:42:00,77.0,43.0,-100.00,West,265,7.0,16.0,29,0.00,,,-99.99,,2013-05-09 20:42:00,
2013-05-09 16:52:00,78.0,43.0,-100.00,NW,310,6.0,12.0,28,0.00,,,-99.99,,2013-05-09 20:52:00,
2013-05-09 17:02:00,77.0,41.0,-100.00,WNW,300,8.0,16.0,27,0.00,,,-99.99,,2013-05-09 21:02:00,
2013-05-09 17:12:00,77.0,42.0,-100.00,NW,325,6.0,12.0,28,0.00,,,-99.99,,2013-05-09 21:12:00,
2013-05-09 17:22:00,77.0,42.0,-100.00,NW,320,9.0,15.0,28,0.00,,,-99.99,,2013-05-09 21:22:00,
2013-05-09 17:32:00,78.0,41.0,-100.00,NW,305,7.0,11.0,27,0.00,,,-99.99,,2013-05-09 21:32:00,
2013-05-09 17:43:00,76.0,42.0,-100.00,NW,320,10.0,16.0,28,0.00,,,-99.99,,2013-05-09 21:43:00,
2013-05-09 17:52:00,76.0,41.0,-100.00,NNW,330,9.0,12.0,28,0.00,,,-99.99,,2013-05-09 21:52:00,
2013-05-09 18:03:00,77.0,41.0,-100.00,NW,310,6.0,9.0,27,0.00,,,-99.99,,2013-05-09 22:03:00,
2013-05-09 18:13:00,76.0,40.0,-100.00,WNW,295,7.0,10.0,27,0.00,,,-99.99,,2013-05-09 22:13:00,
2013-05-09 18:23:00,77.0,41.0,-100.00,NW,315,4.0,10.0,26,0.00,,,-99.99,,2013-05-09 22:23:00,
2013-05-09 18:33:00,77.0,40.0,-100.00,WNW,290,6.0,12.0,27,0.00,,,-99.99,,2013-05-09 22:33:00,
2013-05-09 18:42:00,76.0,39.0,-100.00,NW,310,4.0,9.0,26,0.00,,,-99.99,,2013-05-09 22:42:00,
2013-05-09 18:52:00,76.0,40.0,-100.00,NW,305,4.0,8.0,26,0.00,,,-99.99,,2013-05-09 22:52:00,
2013-05-09 19:02:00,76.0,38.0,-100.00,NW,320,4.0,7.0,25,0.00,,,-99.99,,2013-05-09 23:02:00,
2013-05-09 19:12:00,76.0,37.0,-100.00,North,0,4.0,14.0,24,0.00,,,-99.99,,2013-05-09 23:12:00,
2013-05-09 19:22:00,75.0,39.0,-100.00,North,355,2.0,9.0,26,0.00,,,-99.99,,2013-05-09 23:22:00,
2013-05-09 19:32:00,75.0,37.0,-100.00,NNE,15,1.0,5.0,25,0.00,,,-99.99,,2013-05-09 23:32:00,
2013-05-09 19:42:00,74.0,37.0,-100.00,NNE,15,2.0,3.0,25,0.00,,,-99.99,,2013-05-09 23:42:00,
2013-05-09 19:52:00,74.0,37.0,-100.00,NNE,15,1.0,2.0,26,0.00,,,-99.99,,2013-05-09 23:52:00,
2013-05-09 20:01:00,73.0,38.0,-100.00,NNW,340,1.0,3.0,27,0.00,,,-99.99,,2013-05-10 00:01:00,
2013-05-09 20:11:00,72.0,41.0,-100.00,WSW,255,1.0,2.0,31,0.00,,,-99.99,,2013-05-10 00:11:00,
2013-05-09 20:22:00,71.0,47.0,-100.00,SW,230,4.0,8.0,41,0.00,,,-99.99,,2013-05-10 00:22:00,
2013-05-09 20:32:00,70.0,49.0,-100.00,SW,235,2.0,6.0,46,0.00,,,-99.99,,2013-05-10 00:32:00,
2013-05-09 20:42:00,70.0,49.0,-100.00,WSW,240,3.0,5.0,47,0.00,,,-99.99,,2013-05-10 00:42:00,
2013-05-09 20:52:00,70.0,50.0,-100.00,WSW,250,1.0,4.0,48,0.00,,,-99.99,,2013-05-10 00:52:00,
2013-05-09 21:01:00,69.0,51.0,-100.00,SW,225,3.0,6.0,51,0.00,,,-99.99,,2013-05-10 01:01:00,
2013-05-09 21:11:00,69.0,51.0,-100.00,WSW,250,4.0,9.0,51,0.00,,,-99.99,,2013-05-10 01:11:00,
2013-05-09 21:21:00,69.0,50.0,-100.00,WSW,250,2.0,7.0,51,0.00,,,-99.99,,2013-05-10 01:21:00,
2013-05-09 21:32:00,69.0,51.0,-100.00,North,5,1.0,3.0,53,0.00,,,-99.99,,2013-05-10 01:32:00,
2013-05-09 21:42:00,68.0,51.0,-100.00,ENE,60,2.0,2.0,53,0.00,,,-99.99,,2013-05-10 01:42:00,
2013-05-09 21:52:00,66.0,51.0,-100.00,ESE,110,2.0,3.0,58,0.00,,,-99.99,,2013-05-10 01:52:00,
2013-05-09 22:02:00,67.0,51.0,-100.00,East,100,2.0,4.0,55,0.00,,,-99.99,,2013-05-10 02:02:00,
2013-05-09 22:11:00,66.0,51.0,-100.00,ESE,120,1.0,2.0,58,0.00,,,-99.99,,2013-05-10 02:11:00,
2013-05-09 22:21:00,66.0,50.0,-100.00,South,180,1.0,2.0,56,0.00,,,-99.99,,2013-05-10 02:21:00,
2013-05-09 22:32:00,66.0,50.0,-100.00,SSW,210,1.0,2.0,55,0.00,,,-99.99,,2013-05-10 02:32:00,
2013-05-09 22:42:00,65.0,50.0,-100.00,South,185,1.0,2.0,57,0.00,,,-99.99,,2013-05-10 02:42:00,
2013-05-09 22:52:00,65.0,49.0,-100.00,SSE,155,1.0,2.0,56,0.00,,,-99.99,,2013-05-10 02:52:00,
2013-05-09 23:01:00,65.0,49.0,-100.00,South,175,1.0,2.0,55,0.00,,,-99.99,,2013-05-10 03:01:00,
2013-05-09 23:11:00,65.0,49.0,-100.00,SSE,155,1.0,2.0,56,0.00,,,-99.99,,2013-05-10 03:11:00,
2013-05-09 23:22:00,65.0,50.0,-100.00,SSE,165,1.0,3.0,58,0.00,,,-99.99,,2013-05-10 03:22:00,
2013-05-09 23:33:00,64.0,50.0,-100.00,SSE,165,1.0,3.0,60,0.00,,,-99.99,,2013-05-10 03:33:00,
2013-05-09 23:43:00,64.0,50.0,-100.00,SSE,160,1.0,3.0,60,0.00,,,-99.99,,2013-05-10 03:43:00,
2013-05-09 23:53:00,64.0,50.0,-100.00,South,170,1.0,2.0,60,0.00,,,-99.99,,2013-05-10 03:53:00,